Find Starlink 5010

NORAD ID: 53930 Int'l Des: 2022-119 Owner: SPXS Country: US Constellation: starlink operational
LEOCIRCULAR

現在のビュー

3D地球を読み込み中...

About Starlink 5010

Starlink 5010 (NORAD 53930) is a starlink constellation satellite (v1.5) launched Sep 24, 2022 by SPXS of US. It operates in LEO, CIRCULAR orbit with a mass of 305.00 kg.

Starlink 5010について

説明を読み込み中...

次回通過

Passes for default location (London). Set your location on the main map for personalized predictions.

高度履歴

Loading altitude history...

軌道要素

1 53930U 22119AW 26195.16668980 -.00309932 00000-0 -23886-2 0 9999
2 53930 53.2167 58.1215 0000909 57.2635 71.2875 15.72176816 5946
Epoch: Jul 14, 2026 • Age: 9 hours

現在のステータス

高度 355.6 km
遠地点 / 近地点 N/A
速度 7.70 km/s
衛星直下点 -5.70°S, 106.97°E
打ち上げ日 Sep 24, 2022
運用期間 3.8 years
タイプ internet

技術仕様

分類 Payload
質量 305.00 kg
乾燥質量 290.00 kg
総質量 305.00 kg
長さ 0.20 m
直径 2.80 m
スパン 9.00 m
形状 Box + pan
製造者 SPXS
バスタイプ Starlink
フェーズステータス In Orbit
所有者/国 SPXS/US

Most Searched